Weather History for Crestview, FL

Change the Weather History Date:

Sunday, October 7, 2012

  Actual Average Record
Temperature  
Mean Temperature 70 °F -  
Max Temperature 79 °F - - ()
Min Temperature 59 °F - - ()
Cooling Degree Days 5    
Growing Degree Days 20 (Base 50)    
Moisture  
Dew Point 61 °F    
Average Humidity 83    
Maximum Humidity 98    
Minimum Humidity 57    
Precipitation  
Precipitation 0.00 in - - ()
Sea Level Pressure  
Sea Level Pressure 30.04 in    
Wind  
Wind Speed 8 mph (NNW)    
Max Wind Speed 14 mph    
Max Gust Speed -    
Visibility 10 miles    
Events      
T = Trace of Precipitation, MM = Missing Value Source: NWS Daily Summary

Daily Weather History Graph

Daily Weather History Graph

Search for Another Location

Airport:

Trip Planner

Search our weather history database for the weather conditions in past years. The results will help you decide how hot, cold, wet, or windy it might be!

Date:

Astronomy

Oct. 07, 2012 Rise Set
Actual Time 6:43 AM CDT 6:23 PM CDT
Civil Twilight 6:19 AM CDT 6:47 PM CDT
Nautical Twilight 5:51 AM CDT 7:15 PM CDT
Astronomical Twilight 5:23 AM CDT 7:43 PM CDT
Moon 11:50 PM CDT (10/7) 1:04 PM CDT (10/7)
Length of Visible Light 12h 28m
Length of Day
11h 39m
Waning Gibbous, 56% of the Moon is Illuminated
Oct 7
Waning Gibbous
Oct 8
Last Quarter
Oct 15
New
Oct 21
First Quarter
Oct 29
Full

Hourly Weather History & Observations

Time (CDT) Temp. Dew Point Humidity Pressure Visibility Wind Dir Wind Speed Gust Speed Precip Events Conditions
12:55 AM 66.4 °F 64.0 °F 92% 29.99 in 10.0 mi North 5.8 mph - N/A   Clear
1:55 AM 65.5 °F 64.0 °F 95% 29.99 in 10.0 mi North 4.6 mph - N/A   Clear
2:55 AM 64.6 °F 63.9 °F 98% 29.99 in 9.0 mi North 5.8 mph - N/A   Clear
3:55 AM 64.0 °F 63.5 °F 98% 29.99 in 7.0 mi North 3.5 mph - N/A   Clear
4:55 AM 63.7 °F 62.8 °F 97% 30.00 in 10.0 mi North 6.9 mph - N/A   Clear
5:51 AM 62.6 °F 60.8 °F 94% 30.01 in 10.0 mi North 10.4 mph - N/A   Mostly Cloudy
5:55 AM 62.4 °F 60.8 °F 94% 30.01 in 10.0 mi North 10.4 mph - N/A   Mostly Cloudy
6:44 AM 62.6 °F 60.8 °F 94% 30.02 in 10.0 mi North 8.1 mph - N/A   Overcast
6:55 AM 62.4 °F 61.0 °F 95% 30.02 in 10.0 mi North 4.6 mph - N/A   Overcast
7:13 AM 62.6 °F 60.8 °F 94% 30.03 in 10.0 mi North 6.9 mph - N/A   Overcast
7:15 AM 62.6 °F 60.8 °F 94% 30.03 in 10.0 mi North 8.1 mph - N/A   Overcast
7:41 AM 62.6 °F 60.8 °F 94% 30.04 in 10.0 mi North 6.9 mph - N/A   Overcast
7:55 AM 62.6 °F 60.1 °F 91% 30.04 in 10.0 mi NNW 8.1 mph - N/A   Overcast
8:24 AM 62.6 °F 60.8 °F 94% 30.05 in 10.0 mi North 11.5 mph - N/A   Overcast
8:51 AM 62.6 °F 60.8 °F 94% 30.06 in 10.0 mi NNW 11.5 mph - N/A   Overcast
8:55 AM 62.8 °F 60.4 °F 92% 30.06 in 10.0 mi NNW 10.4 mph - N/A   Overcast
9:15 AM 62.6 °F 60.8 °F 94% 30.07 in 10.0 mi NNW 10.4 mph - N/A   Overcast
9:31 AM 64.4 °F 60.8 °F 88% 30.07 in 10.0 mi NNW 11.5 mph - N/A   Overcast
9:44 AM 64.4 °F 60.8 °F 88% 30.08 in 10.0 mi NNW 11.5 mph - N/A   Overcast
9:55 AM 64.6 °F 59.9 °F 85% 30.08 in 10.0 mi NNW 10.4 mph - N/A   Overcast
10:21 AM 64.4 °F 59.0 °F 83% 30.07 in 10.0 mi NNW 12.7 mph - N/A   Overcast
10:39 AM 66.2 °F 59.0 °F 78% 30.08 in 10.0 mi NNW 10.4 mph - N/A   Overcast
10:55 AM 67.3 °F 59.2 °F 75% 30.08 in 10.0 mi NNW 12.7 mph - N/A   Mostly Cloudy
11:05 AM 68.0 °F 59.0 °F 73% 30.07 in 10.0 mi North 13.8 mph - N/A   Mostly Cloudy
11:07 AM 68.0 °F 59.0 °F 73% 30.07 in 10.0 mi North 12.7 mph - N/A   Scattered Clouds
11:55 AM 68.9 °F 59.0 °F 71% 30.07 in 10.0 mi North 11.5 mph - N/A   Partly Cloudy
12:55 PM 72.9 °F 60.1 °F 64% 30.04 in 10.0 mi NNW 10.4 mph - N/A   Clear
1:55 PM 75.9 °F 61.3 °F 60% 30.01 in 10.0 mi North 9.2 mph - N/A   Clear
2:55 PM 78.1 °F 62.2 °F 58% 29.99 in 10.0 mi North 10.4 mph - N/A   Clear
3:55 PM 79.2 °F 63.0 °F 57% 29.99 in 10.0 mi North 8.1 mph - N/A   Clear
4:55 PM 78.6 °F 63.3 °F 59% 29.99 in 10.0 mi North 9.2 mph - N/A   Partly Cloudy
5:55 PM 75.9 °F 63.3 °F 65% 30.00 in 10.0 mi NNW 8.1 mph - N/A   Partly Cloudy
6:55 PM 70.3 °F 62.2 °F 75% 30.02 in 10.0 mi North 8.1 mph - N/A   Clear
7:55 PM 67.3 °F 61.2 °F 81% 30.04 in 10.0 mi NNW 5.8 mph - N/A   Clear
8:55 PM 65.1 °F 59.0 °F 81% 30.07 in 10.0 mi NNW 9.2 mph - N/A   Clear
9:55 PM 63.3 °F 57.0 °F 80% 30.07 in 10.0 mi North 9.2 mph - N/A   Clear
10:55 PM 61.3 °F 55.6 °F 81% 30.07 in 10.0 mi NNW 8.1 mph - N/A   Clear
11:55 PM 59.4 °F 53.6 °F 81% 30.06 in 10.0 mi NNW 6.9 mph - N/A   Clear